Location: Ammerl�gen
(47.2167°N, 9.6000°E)
Time: 09:42:00
(UTC+00:00)

Cosmos 2279 Rocket - Pass Details

Date: 21 April 2021
Orbit: 964 x 979 km, 82.9° (Epoch: 06 May)

Event Time Altitude Azimuth Distance (km) Brightness Sun altitude
Rises 19:00:40 0° 166° (SSE) 3,638 6.6 -7.3°
Reaches altitude 10° 19:03:15 10° 161° (SSE) 2,695 5.9 -7.7°
Maximum altitude 19:09:03 46° 90° (E) 1,282 4.3 -8.6°
Drops below altitude 10° 19:14:55 10° 20° (NNE) 2,715 6.5 -9.5°
Sets 19:17:31 0° 14° (NNE) 3,667 7.2 -9.8°
